Eastern Oregon Regional At Pendleton Airport Pendleton US
ICAO: KPDT
IATA: PDT
Category: Medium
Scheduled Services: No

Elevation: 1497 ft
TransAlt. 18000 ft.

Airport Communications:
CHINOOK APP/DEP:133.15
ASOS:118.325
CTAF:119.7
GND:121.9
ARNG OPS:40.9
MC MINNVILLE RDO:122.2
PENDLETON TWR:119.7
UNICOM:122.95

KPDT Zoom In..

If you have problems with the map follow the link
https://www.worldairports.se/pages/airport.php?
ICAO=KPDT

Runways:

(A) RW 07 length 6301 ft width 150 ft
---- / hdg 74

(B) RW 11 length 5581 ft width 100 ft
---- / hdg 112

(C) RW 16 length 4341 ft width 60 ft
---- / hdg 163

(D) RW 25 length 6301 ft width 150 ft
ILS 110.30 / hdg 254

(E) RW 29 length 5581 ft width 100 ft
---- / hdg 292

(F) RW 34 length 4341 ft width 60 ft
---- / hdg 343

Location; KPDT
Day. 08 / Time. 13.53 Zulu
* Altimeter: 29.90
* Temperature: 02° c. 35.6°f.
* Wind from: 000° Speed 00 kn.
Dewpoint: 01° c.
Visibility: 1/2 Statute Miles.
Clouds: Overcast 300 ft.
Conditions: Fog.

KPDT 081353Z AUTO 00000KT 1/2SM R26/2200V3000FT FG OVC003 02/01 A2990 RMK AO2 SLP130 T00220011


Wind - Calm.

 
 
jpsmedia worldairports.se 2019   terms of use